Weather History for Cartersville, GA

Change the Weather History Date:

Tuesday, May 21, 2013

  Actual Average Record
Temperature  
Mean Temperature 75 °F 69 °F  
Max Temperature 88 °F 81 °F 91 °F (2011)
Min Temperature 62 °F 57 °F 42 °F (2002)
Cooling Degree Days 10 5  
Month to date cooling degree days 39 66  
Year to date cooling degree days 65 91  
Growing Degree Days 24 (Base 50)    
Moisture  
Dew Point 66 °F    
Average Humidity 75    
Maximum Humidity 100    
Minimum Humidity 50    
Precipitation  
Precipitation 0.00 in 0.11 in 1.90 in (1982)
Month to date precipitation 6.26 2.77  
Year to date precipitation 11.81 20.90  
Sea Level Pressure  
Sea Level Pressure 29.98 in    
Wind  
Wind Speed 2 mph (South)    
Max Wind Speed 8 mph    
Max Gust Speed 12 mph    
Visibility 6 miles    
Events      
T = Trace of Precipitation, MM = Missing Value Source: NWS Daily Summary

Daily Weather History Graph

Daily Weather History Graph

Search for Another Location

Airport:

Trip Planner

Search our weather history database for the weather conditions in past years. The results will help you decide how hot, cold, wet, or windy it might be!

Date:

Astronomy

May. 21, 2013 Rise Set
Actual Time 6:33 AM EDT 8:38 PM EDT
Civil Twilight 6:05 AM EDT 9:06 PM EDT
Nautical Twilight 5:31 AM EDT 9:41 PM EDT
Astronomical Twilight 4:54 AM EDT 10:18 PM EDT
Moon 5:00 PM EDT (5/21) 3:50 AM EDT (5/21)
Length of Visible Light 15h 01m
Length of Day
14h 05m
Waxing Gibbous, 84% of the Moon is Illuminated
May 21
Waxing Gibbous
May 25
Full
May 31
Last Quarter
Jun 8
New
Jun 16
First Quarter

Hourly Weather History & Observations

Time (EDT) Temp. Heat Index Dew Point Humidity Pressure Visibility Wind Dir Wind Speed Gust Speed Precip Events Conditions
12:53 AM 64.9 °F - 64.9 °F 100% 30.00 in 6.0 mi Calm Calm - N/A   Clear
1:53 AM 66.9 °F - 66.9 °F 100% 30.00 in 7.0 mi Calm Calm - N/A   Mostly Cloudy
2:53 AM 64.9 °F - 64.9 °F 100% 29.99 in 5.0 mi Calm Calm - N/A   Partly Cloudy
3:53 AM 66.0 °F - 66.0 °F 100% 29.98 in 5.0 mi Calm Calm - N/A   Partly Cloudy
4:53 AM 64.9 °F - 64.9 °F 100% 29.98 in 5.0 mi Calm Calm - N/A   Clear
5:40 AM 62.6 °F - 62.6 °F 100% 30.02 in 2.0 mi Calm Calm - N/A   Clear
5:48 AM 62.6 °F - 62.6 °F 100% 30.01 in 3.0 mi Calm Calm - N/A   Partly Cloudy
5:53 AM 63.0 °F - 63.0 °F 100% 29.98 in 2.5 mi Calm Calm - N/A   Scattered Clouds
6:12 AM 62.6 °F - 62.6 °F 100% 30.02 in 3.0 mi Calm Calm - N/A   Mostly Cloudy
6:22 AM 62.6 °F - 62.6 °F 100% 30.02 in 5.0 mi Calm Calm - N/A   Scattered Clouds
6:35 AM 62.6 °F - 62.6 °F 100% 30.03 in 1.5 mi Calm Calm - N/A   Scattered Clouds
6:39 AM 62.6 °F - 62.6 °F 100% 30.03 in 0.8 mi Calm Calm - N/A   Mist
6:45 AM 64.4 °F - 64.4 °F 100% 30.03 in 1.0 mi Calm Calm - N/A   Mist
6:49 AM 62.6 °F - 62.6 °F 100% 30.03 in 2.0 mi Calm Calm - N/A   Clear
6:53 AM 62.1 °F - 62.1 °F 100% 30.00 in 3.0 mi Calm Calm - N/A   Clear
7:53 AM 68.0 °F - 68.0 °F 100% 30.03 in 3.0 mi Calm Calm - N/A   Overcast
8:53 AM 73.0 °F - 70.0 °F 90% 30.03 in 6.0 mi Calm Calm - N/A   Scattered Clouds
9:53 AM 75.9 °F - 69.1 °F 79% 30.03 in 9.0 mi Calm Calm - N/A   Clear
10:53 AM 80.1 °F 82.9 °F 69.1 °F 69% 30.02 in 10.0 mi Calm Calm - N/A   Clear
11:53 AM 82.0 °F 85.5 °F 69.1 °F 65% 30.02 in 10.0 mi Variable 3.5 mph - N/A   Clear
12:53 PM 84.0 °F 86.5 °F 66.9 °F 56% 30.01 in 10.0 mi Calm Calm - N/A   Clear
1:53 PM 84.9 °F 87.6 °F 66.9 °F 55% 29.99 in 10.0 mi Calm Calm - N/A   Scattered Clouds
2:53 PM 87.1 °F 89.2 °F 66.0 °F 49% 29.96 in 10.0 mi Variable 4.6 mph - N/A   Clear
3:53 PM 87.1 °F 89.9 °F 66.9 °F 51% 29.93 in 10.0 mi Variable 4.6 mph - N/A   Partly Cloudy
4:53 PM 84.9 °F 88.8 °F 69.1 °F 59% 29.91 in 10.0 mi Variable 3.5 mph - N/A   Mostly Cloudy
5:53 PM 84.0 °F 87.8 °F 69.1 °F 61% 29.89 in 10.0 mi South 3.5 mph - N/A   Scattered Clouds
6:53 PM 84.0 °F 89.0 °F 71.1 °F 65% 29.88 in 10.0 mi Calm Calm - N/A   Mostly Cloudy
7:53 PM 79.0 °F - 73.0 °F 82% 29.87 in 10.0 mi South 3.5 mph - N/A   Clear
8:53 PM 73.0 °F - 72.0 °F 96% 29.90 in 8.0 mi SSE 3.5 mph - N/A   Partly Cloudy
9:53 PM 75.0 °F - 69.1 °F 82% 29.92 in 10.0 mi South 3.5 mph - N/A   Clear
10:53 PM 73.0 °F - 69.1 °F 87% 29.94 in 10.0 mi Calm Calm - N/A   Clear
11:53 PM 73.0 °F - 68.0 °F 84% 29.94 in 10.0 mi South 3.5 mph - N/A   Clear